Weather in Oleksandropil

Ukraine / Dnipropetrovsk Region     47°51′39″N   34°12′09″E
temp.,
°C
wind,
m/s
gust,
m/s
humid.,
%
clouds,
%
prec.,
mm/h
press.,
hPa
HPBL,
m
12 april, mon
mon1200:00+11nne51055100 0.0 1022403
03:00+10nne51061100 0.0 1021424
06:00+9ne4866100 0.1 1021390
09:00+9ne3573100 0.1 1020338
12:00+12se2372100 0.0 1020801
15:00+14s326290 0.0 10201060
18:00+14s2264100 0.0 1020557
21:00+12s2373100 0.0 102170
13 april, tue
tue1300:00+11s2281100 0.0 102063
03:00+10s2384100 0.1 1021125
06:00+10s2388100 0.1 1021154
09:00+10sse3482100 0.1 1021374
12:00+14s446966 0.0 1021931
15:00+15s446374 0.1 10211121
18:00+14sse336769 0.1 1020732
21:00+12se357898 0.3 1020188
14 april, wed
wed1400:00+11sse4786100 0.3 1019270
03:00+10s229044 0.3 101833
06:00+9ssw238842 0.0 1018105
09:00+11sse3383100 0.0 1019435
12:00+15sse455912 0.0 10181151
15:00+16se5550100 0.0 10161704
18:00+16se465090 0.0 1016945
21:00+12sse3869100 0.0 1016210
15 april, thu
thu1500:00+9se3582100 0.0 1015121
03:00+9ese3485100 0.0 1015116
06:00+9ese2387100 0.0 101579
09:00+12ese4565100 0.0 1014511
12:00+15se565291 0.0 10141120
15:00+15sse5555100 0.0 10121314
18:00+10ssw4588100 0.3 1013348
21:00+9s359195 0.5 1013238
16 april, fri
fri1600:00+9ssw479277 0.1 1013379
03:00+7ssw3692100 0.1 1012216
06:00+7s3590100 0.0 1012193
09:00+9s4578100 0.0 1013619
12:00+11ssw4573100 0.1 1013815
15:00+10ssw3380100 0.2 1013451
18:00+9s3489100 0.3 1013290
21:00+8s2292100 0.5 1014172